This is the latest recevied weather packets stored in our database for station/object KB0RPJ. If no packets are shown the sender has not sent any weather packets the latest 10 day(s).
| Time | Temp. | Humidity | Pressure | Rain* | Wind** | Luminosity | Snow |
|---|---|---|---|---|---|---|---|
| 1777417806 | 16.11° C | 54% | 1013.8 hPa | 0 mm | - | 89 W/m² | - |
| 1777414205 | 16.67° C | 55% | 1013.9 hPa | 0 mm | - | 248 W/m² | - |
| 1777413905 | 16.67° C | 56% | 1013.8 hPa | 0 mm | - | 329 W/m² | - |
| 1777410916 | 16.11° C | 55% | 1014.6 hPa | 0 mm | - | 290 W/m² | - |
| 1777407904 | 16.11° C | 54% | 1014.6 hPa | 0 mm | - | 395 W/m² | - |
| 1777407605 | 16.11° C | 57% | 1014.6 hPa | 0 mm | - | 559 W/m² | - |
| 1777406704 | 16.11° C | 56% | 1014.7 hPa | 0 mm | - | 758 W/m² | - |
| 1777406104 | 16.11° C | 60% | 1014.7 hPa | 0 mm | - | 789 W/m² | - |
| 1777405505 | 16.11° C | 58% | 1014.5 hPa | 0 mm | - | 880 W/m² | - |
| 1777404908 | 15.56° C | 61% | 1014.2 hPa | 0 mm | - | 893 W/m² | - |
| 1777404305 | 15° C | 61% | 1014.1 hPa | 0 mm | - | 925 W/m² | - |
| 1777404006 | 15° C | 62% | 1014.5 hPa | 0 mm | - | 429 W/m² | - |
| 1777403106 | 15° C | 59% | 1014.7 hPa | 0 mm | - | 283 W/m² | - |
| 1777399805 | 14.44° C | 65% | 1015.3 hPa | 0 mm | - | 899 W/m² | - |
| 1777398905 | 13.89° C | 69% | 1015.6 hPa | 0 mm | - | 605 W/m² | - |
| 1777397706 | 13.33° C | 66% | 1016.1 hPa | 0 mm | - | 819 W/m² | - |
| 1777397407 | 13.33° C | 66% | 1016.4 hPa | 0 mm | - | 737 W/m² | - |
| 1777396806 | 13.33° C | 65% | 1016.8 hPa | 0 mm | - | 912 W/m² | - |
| 1777395920 | 12.78° C | 65% | 1017.2 hPa | 0 mm | - | 920 W/m² | - |
| 1777395605 | 12.78° C | 65% | 1017.3 hPa | 0 mm | - | 593 W/m² | - |
| 1777395307 | 12.78° C | 67% | 1017.3 hPa | 0 mm | - | 758 W/m² | - |
| 1777395008 | 12.78° C | 70% | 1017.3 hPa | 0 mm | - | 824 W/m² | - |
| 1777393805 | 11.67° C | 71% | 1017.5 hPa | 0 mm | - | 851 W/m² | - |
| 1777392005 | 11.11° C | 72% | 1018.4 hPa | 0 mm | - | 405 W/m² | - |
| 1777391105 | 11.11° C | 71% | 1018.2 hPa | 0 mm | - | 274 W/m² | - |
* Rain latest hour (hover to see other rain measurements)
** Current wind speed in m/s (hover to see current wind gust speed)